Tracking 27122 objects as of 25-Mar-2023
HD Live streaming from Space Station
objects crossing your sky now

STARLINK-4379

Track STARLINK-4379 now!
10-day predictions
STARLINK-4379 is classified as:


NORAD ID: 53217
Int'l Code: 2022-084AE
Perigee: 568.9 km
Apogee: 571.3 km
Inclination: 97.7 °
Period: 95.9 minutes
Semi major axis: 6941 km
RCS: Unknown
Launch date: July 22, 2022
Source: United States (US)
Launch site: AIR FORCE WESTERN TEST RANGE (AFWTR)
Your satellite tracking list
Your tracking list is empty




NASA's NSSDC Master Catalog

Two Line Element Set (TLE):
1 53217U 22084AE  23083.63539769  .00005116  00000-0  40242-3 0  9996
2 53217  97.6542 145.9176 0001760  86.7506 273.3919 15.01276715 37506
Source of the keplerian elements: AFSPC